[[{"header":{"parameterUnit":"m.s-1","parameterCategory":1,"la1":30.2991,"la2":30.254,"lo1":-89.0895,"lo2":-89.0444,"dy":0.0017,"dx":0.0017,"nx":28,"ny":28,"refTime":"2025-04-24T09:00:00:Z","depth":0,"parameterNumber":2,"parameterNumberName":"U-component_of_WINDS"},"data":[0,0,0,0,0,0,0,0,0,0,0,0,0,0,0,0,0,0,0,0,0,0,0,0,0,0,0,0,0,0,0,0,0,0,0,0,0,0,0,0,0,0,0,0,0,0,0,0,0,0,0,0,0,0,0,0,0,0,0.0791,0.079,0,0.0741,0.0741,0.074,0.0706,0.0706,0.0705,0.0705,0.0651,0.0649,0.0648,0,0,0,0,0,0,0,0,0,0,0,0,0,0.0851,0.085,0.0791,0.079,0.0789,0.0741,0.0741,0.074,0.0706,0.0706,0.0705,0.0705,0.0651,0.065,0.0648,0,0,0,0,0,0,0,0,0,0,0,0,0,0.0816,0.085,0.0791,0.0767,0.0764,0.0741,0.0741,0.074,0.0706,0.0706,0.0705,0.0705,0.0652,0.065,0.0648,0.0644,0,0,0.0642,0.0642,0,0,0,0,0,0,0,0,0.0818,0.0813,0.0771,0.0768,0.0765,0.0729,0.0742,0.0707,0.0706,0.0728,0.0705,0.0705,0.0677,0.0673,0.0664,0.0641,0.0639,0.0642,0.0641,0.064,0.064,0,0,0,0,0,0,0,0.082,0.0815,0.0771,0.077,0.0767,0.0757,0.0751,0.0735,0.0705,0.0726,0.0723,0.0718,0.0675,0.0666,0.0663,0.0638,0.0642,0.0641,0.0639,0.0639,0.0608,0.0608,0,0,0,0,0,0,0.0827,0.0818,0.0772,0.0769,0.0791,0.0756,0.075,0.0741,0.0705,0.0699,0.0719,0.0717,0.067,0.0665,0.0661,0.0653,0.064,0.0639,0.0638,0.0608,0.0608,0.0608,0,0,0,0,0,0,0.0828,0.0823,0.0774,0.0793,0.0786,0.0756,0.0746,0.074,0.0731,0.07,0.0693,0.0715,0.0669,0.0663,0.0648,0.0651,0.0638,0.0636,0.0607,0.0608,0.0608,0.0638,0,0,0,0,0,0,0.083,0.0824,0.0823,0.0793,0.0785,0.0764,0.0746,0.074,0.0729,0.0726,0.0695,0.0689,0.0668,0.0651,0.0647,0.0648,0.0635,0.0607,0.0608,0.0608,0.0637,0.064,0.0642,0,0,0,0,0,0.0833,0.0833,0.0824,0.0818,0.0784,0.0765,0.076,0.0737,0.0729,0.0727,0.0707,0.069,0.0651,0.065,0.0644,0.0645,0.0607,0.0607,0.0608,0.0636,0.0639,0.0642,0,0,0,0,0,0,0.0863,0.0829,0.0818,0.0809,0.079,0.0759,0.0756,0.0741,0.0724,0.0722,0.0693,0.0686,0.0674,0.0658,0.0657,0.0639,0.0627,0.0626,0.065,0.0653,0.0655,0.0659,0.0633,0,0,0,0,0,0.087,0.0858,0.0828,0.0823,0.0814,0.0787,0.0778,0.0762,0.0741,0.0732,0.071,0.0689,0.0672,0.0661,0.0644,0.0634,0.0626,0.0632,0.0634,0.0637,0.0636,0.0629,0.0631,0.061,0.061,0.061,0,0,0.0881,0.0861,0.0855,0.0829,0.0812,0.08,0.0781,0.0768,0.0758,0.073,0.0715,0.0698,0.0672,0.066,0.0653,0.0646,0.064,0.0637,0.0639,0.0638,0.063,0.0632,0.0633,0.0611,0.0611,0.0611,0,0,0.0897,0.0881,0.0874,0.0858,0.0834,0.0816,0.0814,0.0785,0.0773,0.0758,0.0736,0.0723,0.0694,0.0677,0.0664,0.0671,0.0655,0.0666,0.0679,0.0672,0.0674,0.0675,0.0677,0.0678,0.0666,0.0666,0.0666,0,0.0914,0.0896,0.0873,0.0862,0.085,0.0825,0.0817,0.0802,0.0773,0.0765,0.0758,0.0721,0.0702,0.0684,0.0686,0.0677,0.0673,0.067,0.0676,0.0677,0.0678,0.0679,0.068,0.0668,0.0668,0.0668,0.0667,0,0.0918,0.0906,0.0903,0.0877,0.0865,0.0856,0.0829,0.082,0.0804,0.0786,0.077,0.0746,0.0723,0.0717,0.0702,0.0697,0.0694,0.0682,0.0669,0.0681,0.0682,0.0683,0.067,0.0669,0.0669,0.0669,0,0,0.0952,0.0913,0.0912,0.0899,0.087,0.0859,0.0848,0.0827,0.0818,0.0799,0.0788,0.0764,0.0752,0.0738,0.072,0.0714,0.072,0.0702,0.0701,0.0706,0.0712,0.0721,0.0722,0.0709,0.0709,0.0709,0.0713,0,0.0963,0.0943,0.0921,0.0909,0.0896,0.0871,0.0861,0.0841,0.0824,0.0809,0.0789,0.0772,0.0759,0.075,0.0743,0.0721,0.0721,0.072,0.0697,0.0696,0.0704,0.0722,0.0732,0.0738,0.0714,0.0714,0.0714,0,0.0973,0.0955,0.0942,0.0913,0.0907,0.0898,0.0876,0.0863,0.0839,0.0827,0.0811,0.0792,0.0777,0.0766,0.0744,0.0744,0.0733,0.0721,0.072,0.0717,0.0706,0.0719,0.0739,0.074,0.0714,0.0714,0.0714,0,0.0998,0.0971,0.0959,0.0949,0.0915,0.091,0.0895,0.0871,0.0859,0.0839,0.0831,0.0809,0.0797,0.078,0.0755,0.0749,0.0735,0.0722,0.0723,0.0724,0.0721,0.0721,0.0739,0.0715,0.0715,0.0715,0.0715,0,0.1012,0.1004,0.097,0.0963,0.0953,0.0927,0.0917,0.09,0.0879,0.0867,0.0843,0.0832,0.08,0.0784,0.0764,0.0748,0.0743,0.0731,0.0726,0.0733,0.0734,0.0725,0.0724,0.0715,0.0715,0.0715,0.0715,0,0.1038,0.1015,0.1001,0.097,0.0962,0.0956,0.0929,0.092,0.0901,0.0886,0.088,0.085,0.083,0.0803,0.0775,0.0761,0.0748,0.074,0.0756,0.0753,0.0755,0.0755,0.0767,0.0767,0.0743,0.0744,0.0744,0,0.1049,0.1042,0.1011,0.1002,0.0989,0.0974,0.0962,0.0935,0.0923,0.0895,0.0889,0.0868,0.0849,0.0818,0.0792,0.077,0.0761,0.0766,0.0757,0.0764,0.076,0.0761,0.0759,0.0769,0.0769,0.077,0.077,0,0.1069,0.1058,0.1042,0.1022,0.1009,0.0991,0.0973,0.0966,0.0935,0.0923,0.0903,0.0888,0.0859,0.0838,0.0812,0.0794,0.0776,0.0773,0.0772,0.0779,0.0789,0.0783,0.0762,0.0773,0.0772,0.0772,0.0772,0.0772,0.1087,0.108,0.1057,0.104,0.1024,0.1007,0.0997,0.0976,0.096,0.0935,0.092,0.09,0.0875,0.0838,0.0822,0.0805,0.0798,0.0796,0.0796,0.0796,0.0798,0.0792,0.08,0.08,0.08,0.08,0.08,0,0.1106,0.109,0.1074,0.105,0.1036,0.1021,0.1,0.0988,0.0972,0.0951,0.0933,0.0909,0.0888,0.086,0.0837,0.0828,0.0819,0.0823,0.0823,0.0819,0.0806,0.0809,0.083,0.083,0.083,0.083,0.083,0.083,0.1114,0.1101,0.1087,0.1065,0.1048,0.103,0.1019,0.1002,0.0985,0.096,0.0943,0.0926,0.0901,0.0875,0.0854,0.0846,0.0838,0.0844,0.0834,0.0822,0.082,0.0817,0.082,0.0843,0.0843,0.0848,0.0848,0.0848]},{"header":{"parameterUnit":"m.s-1","parameterCategory":1,"la1":30.2991,"la2":30.254,"lo1":-89.0895,"lo2":-89.0444,"dy":0.0017,"dx":0.0017,"nx":28,"ny":28,"refTime":"2025-04-24T09:00:00:Z","depth":0,"parameterNumber":3,"parameterNumberName":"V-component_of_WINDS"},"data":[0,0,0,0,0,0,0,0,0,0,0,0,0,0,0,0,0,0,0,0,0,0,0,0,0,0,0,0,0,0,0,0,0,0,0,0,0,0,0,0,0,0,0,0,0,0,0,0,0,0,0,0,0,0,0,0,0,0,1.9317,1.9317,0,1.9325,1.9325,1.9325,1.9318,1.9318,1.9317,1.9317,1.9325,1.9325,1.9326,0,0,0,0,0,0,0,0,0,0,0,0,0,1.9295,1.9296,1.9317,1.9317,1.9317,1.9325,1.9325,1.9325,1.9318,1.9318,1.9317,1.9317,1.9324,1.9325,1.9326,0,0,0,0,0,0,0,0,0,0,0,0,0,1.9304,1.9296,1.9317,1.9314,1.9314,1.9325,1.9325,1.9325,1.9318,1.9318,1.9317,1.9317,1.9324,1.9325,1.9326,1.9339,0,0,1.9328,1.9328,0,0,0,0,0,0,0,0,1.9304,1.9305,1.9315,1.9315,1.9315,1.932,1.932,1.933,1.9318,1.9317,1.9317,1.9317,1.9323,1.9324,1.9327,1.9339,1.9339,1.9328,1.9328,1.9329,1.9329,0,0,0,0,0,0,0,1.9303,1.9305,1.932,1.9315,1.9315,1.9313,1.9314,1.9322,1.9322,1.9317,1.9316,1.9317,1.9323,1.9326,1.9327,1.9339,1.9328,1.9328,1.9329,1.9329,1.9364,1.9365,0,0,0,0,0,0,1.9303,1.9304,1.932,1.932,1.9308,1.9314,1.9315,1.9319,1.9322,1.9322,1.9318,1.9317,1.9325,1.9326,1.9327,1.9343,1.9329,1.9329,1.933,1.9364,1.9365,1.9365,0,0,0,0,0,0,1.9302,1.9304,1.9319,1.9312,1.9314,1.9315,1.9319,1.9319,1.9322,1.9323,1.9323,1.932,1.9325,1.9326,1.9336,1.9343,1.933,1.933,1.9363,1.9364,1.9365,1.9375,0,0,0,0,0,0,1.9302,1.9304,1.9309,1.9312,1.9314,1.9328,1.932,1.932,1.9323,1.9322,1.9325,1.9326,1.9324,1.9335,1.9337,1.9344,1.9331,1.9363,1.9364,1.9365,1.9374,1.9376,1.9378,0,0,0,0,0,1.9301,1.9311,1.9309,1.9311,1.932,1.9329,1.933,1.9329,1.9324,1.9329,1.933,1.9325,1.9342,1.9336,1.9338,1.9346,1.9362,1.9363,1.9365,1.9373,1.9376,1.9378,0,0,0,0,0,0,1.9308,1.9311,1.9309,1.9321,1.9325,1.9328,1.9334,1.9331,1.9336,1.9335,1.9333,1.9334,1.9345,1.9346,1.9339,1.9359,1.9352,1.9353,1.9358,1.936,1.9362,1.9361,1.9331,0,0,0,0,0,1.9311,1.9317,1.932,1.933,1.9332,1.9333,1.9336,1.9335,1.9339,1.934,1.9342,1.9346,1.9352,1.9356,1.9362,1.9375,1.9376,1.9381,1.9383,1.9384,1.9386,1.9394,1.9396,1.9369,1.9369,1.9369,0,0,1.9316,1.9319,1.9323,1.9331,1.9334,1.9341,1.9334,1.9341,1.9347,1.9341,1.9351,1.9353,1.9357,1.9369,1.9374,1.9371,1.9394,1.9386,1.9387,1.9388,1.9395,1.9398,1.94,1.937,1.937,1.937,0,0,1.933,1.9333,1.9342,1.9346,1.935,1.9351,1.9353,1.9357,1.9358,1.9368,1.9365,1.9371,1.9382,1.9385,1.9389,1.9406,1.9403,1.9408,1.9418,1.9426,1.9428,1.943,1.9436,1.9439,1.941,1.941,1.941,0,1.9337,1.9347,1.9347,1.9355,1.9359,1.9356,1.9365,1.9368,1.9374,1.9377,1.9373,1.9388,1.939,1.9403,1.9408,1.941,1.9413,1.9407,1.9428,1.9429,1.9431,1.9438,1.944,1.941,1.941,1.941,1.941,0,1.9355,1.9363,1.937,1.9377,1.9382,1.939,1.9391,1.9396,1.9395,1.9397,1.9408,1.9411,1.9418,1.9421,1.942,1.9434,1.9432,1.9428,1.942,1.9434,1.9441,1.9443,1.9411,1.9411,1.9411,1.9411,0,0,1.9372,1.9381,1.9383,1.9387,1.9393,1.9399,1.9408,1.9415,1.942,1.9425,1.9433,1.9443,1.9439,1.9443,1.9442,1.9449,1.9464,1.9444,1.9444,1.9448,1.9481,1.9484,1.9487,1.9462,1.9462,1.9463,1.9481,0,1.9387,1.9403,1.9404,1.9418,1.9426,1.9424,1.9432,1.9437,1.9438,1.9445,1.9447,1.9455,1.9449,1.9452,1.9458,1.9461,1.947,1.9459,1.9469,1.947,1.9468,1.949,1.9493,1.951,1.9483,1.9484,1.9484,0,1.9406,1.9413,1.9428,1.9435,1.9438,1.9445,1.9453,1.9459,1.9465,1.9466,1.9471,1.947,1.948,1.9472,1.9486,1.9479,1.9483,1.9485,1.9485,1.9486,1.9478,1.9492,1.9516,1.9518,1.9488,1.9487,1.9487,0,1.9418,1.943,1.9442,1.9445,1.9452,1.9458,1.9461,1.9467,1.9472,1.9478,1.9482,1.9489,1.9493,1.9499,1.9501,1.9495,1.9515,1.9507,1.9516,1.9516,1.952,1.952,1.9545,1.9523,1.9523,1.9523,1.9523,0,1.9434,1.9444,1.9447,1.9454,1.9466,1.9467,1.9478,1.9481,1.9486,1.9494,1.9492,1.9499,1.95,1.9508,1.9509,1.9521,1.9523,1.9524,1.9524,1.9524,1.9524,1.9527,1.9525,1.9523,1.9523,1.9523,1.9523,0,1.9448,1.9451,1.9463,1.947,1.9472,1.948,1.9486,1.9493,1.9495,1.9505,1.9508,1.9511,1.952,1.9522,1.9533,1.9534,1.9548,1.9547,1.9546,1.9546,1.9555,1.9554,1.9583,1.9587,1.9562,1.9562,1.9562,0,1.9458,1.9466,1.9474,1.948,1.9483,1.9492,1.9497,1.9499,1.9505,1.9513,1.9519,1.9528,1.9536,1.9551,1.9554,1.9563,1.9562,1.9572,1.9563,1.9563,1.9563,1.9562,1.9563,1.9573,1.9573,1.9573,1.9574,0,1.9476,1.9478,1.9486,1.9495,1.9502,1.9508,1.9515,1.952,1.9522,1.9529,1.9539,1.9545,1.9556,1.9566,1.9575,1.9578,1.9577,1.9576,1.9579,1.9579,1.9579,1.9579,1.9551,1.9576,1.9575,1.9575,1.9575,1.9575,1.9489,1.9496,1.9504,1.9513,1.9518,1.9525,1.9532,1.9536,1.9545,1.9555,1.9555,1.9566,1.9573,1.9585,1.9589,1.9598,1.9595,1.9598,1.9599,1.96,1.9601,1.9577,1.9599,1.9599,1.9599,1.9599,1.9599,0,1.9507,1.9512,1.9521,1.9531,1.9539,1.9537,1.9545,1.9551,1.9561,1.9568,1.9576,1.9588,1.9597,1.9602,1.9612,1.9618,1.9618,1.9621,1.962,1.9621,1.9603,1.96,1.9621,1.9621,1.9621,1.9621,1.9621,1.9621,1.9518,1.953,1.9533,1.9549,1.9553,1.9564,1.9569,1.9576,1.9581,1.9595,1.9603,1.9606,1.9613,1.9623,1.9632,1.9633,1.9637,1.964,1.9641,1.9624,1.9622,1.962,1.9617,1.9641,1.9641,1.9658,1.9659,1.9659]}]]